[[{"header":{"parameterUnit":"m.s-1","parameterCategory":1,"la1":30.2991,"la2":30.254,"lo1":-89.0895,"lo2":-89.0444,"dy":0.0017,"dx":0.0017,"nx":28,"ny":28,"refTime":"2025-09-03T21:00:00:Z","depth":0,"parameterNumber":2,"parameterNumberName":"U-component_of_WINDS"},"data":[0,0,0,0,0,0,0,0,0,0,0,0,0,0,0,0,0,0,0,0,0,0,0,0,0,0,0,0,0,0,0,0,0,0,0,0,0,0,0,0,0,0,0,0,0,0,0,0,0,0,0,0,0,0,0,0,0,0,0.1644,0.1644,0,0.169,0.1691,0.1691,0.1739,0.174,0.174,0.1741,0.1789,0.179,0.1791,0,0,0,0,0,0,0,0,0,0,0,0,0,0.1597,0.1597,0.1644,0.1644,0.1645,0.169,0.1691,0.1691,0.1739,0.174,0.1741,0.1741,0.1789,0.179,0.1791,0,0,0,0,0,0,0,0,0,0,0,0,0,0.1627,0.1597,0.1644,0.1674,0.1677,0.169,0.1691,0.1692,0.1739,0.174,0.1741,0.1742,0.1789,0.179,0.1791,0.1778,0,0,0.1794,0.1794,0,0,0,0,0,0,0,0,0.1626,0.1629,0.1669,0.1672,0.1676,0.171,0.1692,0.172,0.1739,0.1715,0.1741,0.1742,0.1762,0.1765,0.1772,0.178,0.1782,0.1794,0.1795,0.1795,0.1795,0,0,0,0,0,0,0,0.1623,0.1627,0.1662,0.1669,0.1674,0.1686,0.1691,0.1698,0.1733,0.1717,0.1721,0.1726,0.1764,0.1771,0.1773,0.1783,0.1794,0.1795,0.1795,0.1796,0.1782,0.1781,0,0,0,0,0,0,0.1617,0.1625,0.1661,0.1664,0.1652,0.1686,0.1692,0.1698,0.1733,0.1739,0.1725,0.1728,0.1769,0.1772,0.1775,0.1762,0.1795,0.1796,0.1797,0.1783,0.1782,0.1781,0,0,0,0,0,0,0.1615,0.1619,0.1659,0.1645,0.1651,0.1685,0.1692,0.1698,0.1705,0.1738,0.1745,0.1725,0.177,0.1774,0.1777,0.1765,0.1796,0.1797,0.1784,0.1783,0.1781,0.1736,0,0,0,0,0,0,0.1614,0.1619,0.1614,0.1645,0.1652,0.1659,0.1691,0.1698,0.1707,0.1711,0.1741,0.1746,0.1771,0.1775,0.1778,0.1767,0.1798,0.1785,0.1784,0.1782,0.1739,0.1733,0.1729,0,0,0,0,0,0.1612,0.1599,0.1613,0.1617,0.1647,0.1658,0.1662,0.169,0.1705,0.1701,0.1723,0.1746,0.1765,0.1775,0.1778,0.1767,0.1786,0.1784,0.1782,0.1741,0.1734,0.1729,0,0,0,0,0,0,0.1566,0.1604,0.162,0.1617,0.1634,0.1666,0.1662,0.1682,0.1695,0.1699,0.1733,0.1739,0.1738,0.1753,0.1763,0.1757,0.1779,0.1778,0.1747,0.1741,0.1736,0.1732,0.1799,0,0,0,0,0,0.1556,0.1562,0.1595,0.1589,0.1597,0.1627,0.1634,0.1653,0.1673,0.168,0.1702,0.172,0.173,0.1736,0.1748,0.1741,0.1748,0.1735,0.173,0.1726,0.1724,0.1722,0.1717,0.1774,0.1774,0.1774,0,0,0.1534,0.1556,0.1557,0.158,0.1596,0.1602,0.1633,0.1638,0.1643,0.1681,0.1685,0.1701,0.1724,0.1722,0.1722,0.1734,0.171,0.1723,0.1719,0.172,0.1719,0.1714,0.1709,0.1772,0.1772,0.1773,0,0,0.1498,0.1515,0.1512,0.1527,0.155,0.157,0.157,0.1599,0.1611,0.1615,0.1644,0.165,0.1667,0.1682,0.1692,0.1661,0.1682,0.1663,0.1637,0.1634,0.163,0.1626,0.1615,0.1611,0.1662,0.1661,0.1661,0,0.1469,0.1478,0.1508,0.1511,0.152,0.1555,0.1552,0.1565,0.1591,0.1596,0.1609,0.1631,0.1649,0.1651,0.1643,0.165,0.165,0.166,0.1628,0.1624,0.1621,0.1611,0.1607,0.1659,0.1659,0.166,0.166,0,0.1441,0.1447,0.1442,0.1466,0.1474,0.1475,0.1504,0.1509,0.1528,0.1547,0.1551,0.1573,0.159,0.1592,0.161,0.1596,0.1603,0.1621,0.1645,0.1613,0.1604,0.1601,0.1656,0.1656,0.1657,0.1658,0,0,0.1378,0.1418,0.1415,0.1426,0.1454,0.146,0.1461,0.1477,0.1481,0.1497,0.15,0.1513,0.153,0.1541,0.1562,0.1559,0.1534,0.1578,0.1579,0.1569,0.152,0.1506,0.1501,0.1548,0.1547,0.1547,0.1518,0,0.1347,0.1352,0.1379,0.1376,0.1382,0.1415,0.1416,0.1433,0.1451,0.1459,0.1479,0.1488,0.151,0.1517,0.1516,0.1537,0.1524,0.1539,0.1551,0.1551,0.1545,0.1496,0.1482,0.1453,0.1515,0.1514,0.1514,0,0.1312,0.1326,0.1323,0.1351,0.1355,0.1356,0.1372,0.1379,0.1399,0.1413,0.1424,0.1447,0.1451,0.1472,0.1478,0.1488,0.1494,0.1505,0.1505,0.1507,0.153,0.1498,0.1445,0.1441,0.1508,0.1509,0.1509,0,0.1266,0.1284,0.1286,0.1294,0.1326,0.1326,0.1339,0.1361,0.1368,0.1383,0.1388,0.1403,0.1411,0.1422,0.1448,0.1461,0.1451,0.1474,0.1462,0.1461,0.1459,0.1458,0.1406,0.1462,0.1462,0.1462,0.1462,0,0.1229,0.1227,0.1266,0.1266,0.1264,0.1295,0.1292,0.1309,0.1327,0.1332,0.1361,0.1364,0.1399,0.1406,0.1427,0.1428,0.1432,0.1443,0.1448,0.144,0.1439,0.1445,0.1448,0.1461,0.1461,0.1461,0.1461,0,0.1179,0.1204,0.1208,0.1238,0.1245,0.1243,0.1268,0.127,0.129,0.1295,0.1298,0.1328,0.1339,0.1366,0.1384,0.1397,0.1393,0.1404,0.1386,0.139,0.1376,0.1377,0.1327,0.1322,0.138,0.1379,0.1378,0,0.1153,0.1152,0.1182,0.1187,0.1199,0.1207,0.1215,0.1244,0.1252,0.1274,0.1273,0.1286,0.1298,0.1313,0.1337,0.135,0.1361,0.1342,0.1363,0.1355,0.1361,0.1361,0.1361,0.1338,0.1337,0.1336,0.1336,0,0.1106,0.1119,0.1129,0.1144,0.1152,0.1165,0.118,0.1182,0.1216,0.1222,0.1233,0.1242,0.126,0.1272,0.1289,0.1303,0.1325,0.1329,0.1327,0.1319,0.1309,0.1314,0.1374,0.133,0.1331,0.1331,0.1331,0.1332,0.1068,0.1068,0.1089,0.11,0.1114,0.1126,0.113,0.1149,0.1159,0.1175,0.1192,0.1201,0.1221,0.1247,0.1259,0.1266,0.1278,0.1275,0.1274,0.1273,0.1269,0.1307,0.127,0.127,0.127,0.127,0.127,0,0.1022,0.1037,0.1047,0.1066,0.1074,0.1093,0.111,0.1116,0.1124,0.114,0.1151,0.1163,0.1175,0.12,0.1214,0.1215,0.1225,0.1218,0.1218,0.1221,0.1258,0.1259,0.1209,0.1209,0.1209,0.1209,0.1209,0.1209,0.1,0.1002,0.1017,0.1026,0.1041,0.105,0.1058,0.107,0.1083,0.1095,0.1105,0.1121,0.1141,0.1157,0.1168,0.1175,0.1179,0.1168,0.1178,0.1213,0.1218,0.1224,0.1225,0.1169,0.1169,0.1141,0.114,0.114]},{"header":{"parameterUnit":"m.s-1","parameterCategory":1,"la1":30.2991,"la2":30.254,"lo1":-89.0895,"lo2":-89.0444,"dy":0.0017,"dx":0.0017,"nx":28,"ny":28,"refTime":"2025-09-03T21:00:00:Z","depth":0,"parameterNumber":3,"parameterNumberName":"V-component_of_WINDS"},"data":[0,0,0,0,0,0,0,0,0,0,0,0,0,0,0,0,0,0,0,0,0,0,0,0,0,0,0,0,0,0,0,0,0,0,0,0,0,0,0,0,0,0,0,0,0,0,0,0,0,0,0,0,0,0,0,0,0,0,1.7025,1.7025,0,1.697,1.6969,1.6969,1.6973,1.6973,1.6974,1.6975,1.6915,1.6913,1.691,0,0,0,0,0,0,0,0,0,0,0,0,0,1.713,1.7128,1.7025,1.7025,1.7024,1.697,1.6969,1.6969,1.6972,1.6973,1.6974,1.6975,1.6916,1.6913,1.691,0,0,0,0,0,0,0,0,0,0,0,0,0,1.708,1.7127,1.7025,1.7019,1.7018,1.697,1.6969,1.6969,1.6972,1.6974,1.6975,1.6976,1.6917,1.6913,1.691,1.6863,0,0,1.6899,1.6897,0,0,0,0,0,0,0,0,1.7083,1.7076,1.7021,1.702,1.7019,1.698,1.6984,1.6933,1.6972,1.699,1.6975,1.6976,1.6935,1.693,1.6917,1.686,1.6858,1.6899,1.6897,1.6895,1.6894,0,0,0,0,0,0,0,1.7086,1.7079,1.7003,1.702,1.7019,1.7018,1.7012,1.6975,1.6956,1.6988,1.6988,1.6982,1.6935,1.6921,1.6916,1.6857,1.6899,1.6896,1.6893,1.6892,1.6756,1.6754,0,0,0,0,0,0,1.7092,1.7082,1.7005,1.7002,1.7055,1.7015,1.7009,1.6991,1.6957,1.6953,1.6981,1.6982,1.6926,1.692,1.6914,1.6854,1.6895,1.6892,1.689,1.6757,1.6755,1.6754,0,0,0,0,0,0,1.7094,1.7085,1.7007,1.7042,1.7032,1.7012,1.6992,1.6989,1.6975,1.6951,1.6947,1.697,1.6927,1.6919,1.6875,1.6852,1.689,1.6887,1.6759,1.6757,1.6755,1.6737,0,0,0,0,0,0,1.7097,1.7086,1.7069,1.7041,1.703,1.6971,1.699,1.6987,1.6969,1.697,1.694,1.6936,1.6927,1.688,1.6872,1.6848,1.6884,1.6761,1.6758,1.6755,1.6739,1.6734,1.673,0,0,0,0,0,1.7101,1.7066,1.7068,1.7059,1.7009,1.697,1.6963,1.6955,1.6967,1.6949,1.6934,1.6937,1.6857,1.6876,1.6866,1.6841,1.6762,1.6759,1.6755,1.6741,1.6735,1.673,0,0,0,0,0,0,1.7091,1.7062,1.7064,1.702,1.6997,1.6971,1.6948,1.6949,1.6921,1.6924,1.6913,1.6906,1.6862,1.6848,1.687,1.6793,1.6811,1.6805,1.6803,1.6797,1.6793,1.6796,1.6881,0,0,0,0,0,1.7084,1.7056,1.7032,1.6995,1.6984,1.6968,1.695,1.6946,1.6921,1.6912,1.6893,1.6868,1.6837,1.6817,1.6787,1.6738,1.6729,1.6715,1.6711,1.6707,1.6702,1.6671,1.6664,1.6743,1.6743,1.6743,0,0,1.7068,1.7049,1.7032,1.6992,1.6974,1.6944,1.696,1.6927,1.6904,1.6906,1.6864,1.6849,1.6821,1.6773,1.6751,1.676,1.6678,1.6703,1.67,1.6696,1.6667,1.666,1.6653,1.674,1.6741,1.6741,0,0,1.7024,1.7008,1.6974,1.6955,1.6928,1.6917,1.6909,1.6882,1.6872,1.683,1.683,1.6802,1.6749,1.6728,1.671,1.6656,1.6657,1.6647,1.6621,1.6592,1.6586,1.658,1.6558,1.655,1.6642,1.6642,1.6642,0,1.7007,1.6963,1.6956,1.6923,1.6904,1.6906,1.687,1.6852,1.6816,1.6802,1.6813,1.6745,1.6727,1.6673,1.6659,1.6646,1.6634,1.6649,1.6588,1.6582,1.6576,1.6555,1.6547,1.6641,1.6641,1.6641,1.6641,0,1.6942,1.6911,1.6887,1.6852,1.6831,1.6797,1.6783,1.6763,1.6759,1.6747,1.6702,1.668,1.6644,1.6631,1.6628,1.6576,1.6582,1.659,1.6608,1.6568,1.6547,1.6539,1.6639,1.664,1.664,1.664,0,0,1.689,1.6851,1.6842,1.6825,1.6795,1.6769,1.6734,1.67,1.6681,1.6656,1.6624,1.658,1.6586,1.6566,1.6561,1.6535,1.649,1.6546,1.6545,1.6534,1.6428,1.642,1.641,1.6491,1.649,1.6489,1.6429,0,1.684,1.6779,1.6771,1.6715,1.6685,1.6686,1.6655,1.6631,1.6619,1.659,1.6575,1.6542,1.6555,1.6543,1.6518,1.6501,1.6468,1.6505,1.6459,1.6457,1.6463,1.64,1.6392,1.6337,1.6421,1.642,1.6419,0,1.6774,1.6747,1.6688,1.666,1.6646,1.6619,1.6586,1.6559,1.6532,1.6524,1.6501,1.6498,1.6459,1.648,1.6425,1.6451,1.6431,1.642,1.6417,1.6411,1.6434,1.6389,1.632,1.631,1.6407,1.6408,1.6409,0,1.6737,1.6686,1.6644,1.663,1.6597,1.6576,1.6561,1.6536,1.6515,1.6486,1.6471,1.6438,1.6419,1.6393,1.638,1.6397,1.6324,1.6345,1.6314,1.6314,1.6297,1.6298,1.6221,1.6289,1.629,1.629,1.629,0,1.6681,1.6644,1.6627,1.6601,1.6559,1.655,1.6508,1.6494,1.647,1.644,1.6439,1.641,1.6396,1.6364,1.6354,1.6308,1.6301,1.6291,1.6288,1.629,1.629,1.6275,1.6277,1.6287,1.6288,1.6288,1.6289,0,1.6632,1.662,1.6573,1.6545,1.6537,1.6507,1.6482,1.6455,1.6443,1.6404,1.6394,1.6374,1.6337,1.6322,1.6276,1.6269,1.6215,1.6217,1.6224,1.6223,1.6192,1.6194,1.61,1.6086,1.6166,1.6166,1.6165,0,1.6596,1.6568,1.6537,1.6516,1.65,1.6468,1.6447,1.6437,1.6414,1.638,1.6357,1.6319,1.6289,1.6228,1.6208,1.6172,1.6171,1.6141,1.6166,1.6167,1.6167,1.6167,1.6163,1.6135,1.6134,1.6134,1.6133,0,1.6532,1.6526,1.6497,1.6463,1.6438,1.6411,1.6386,1.6369,1.6354,1.6328,1.629,1.6266,1.6219,1.6181,1.6144,1.6126,1.6126,1.6126,1.6116,1.6116,1.612,1.6114,1.6208,1.6127,1.6128,1.6128,1.6129,1.6129,1.6486,1.646,1.6433,1.6399,1.6378,1.6354,1.6327,1.6311,1.6279,1.624,1.6236,1.6194,1.6165,1.6115,1.6096,1.6062,1.6069,1.6056,1.6052,1.6049,1.6045,1.6128,1.6055,1.6055,1.6055,1.6056,1.6056,0,1.6419,1.6402,1.6371,1.6334,1.6306,1.6311,1.6282,1.6257,1.6221,1.6195,1.6164,1.6119,1.6082,1.6059,1.602,1.5997,1.5996,1.5987,1.5987,1.5982,1.6042,1.6052,1.5989,1.5989,1.5989,1.5989,1.5989,1.5989,1.6381,1.6336,1.6327,1.6271,1.6254,1.6213,1.6196,1.6172,1.6151,1.61,1.6069,1.6055,1.6029,1.5989,1.5954,1.5948,1.5932,1.5923,1.5917,1.5972,1.5979,1.5985,1.5995,1.592,1.592,1.586,1.5859,1.5859]}]]